Home > Weather > Bucharest > Past weeks

Flag for Romania Past Weather in Bucharest, Romania — Yesterday and Last 2 Weeks

Now
77 °F

Clear.


Feels Like: 79 °F
Forecast: 71 / 93 °F
Wind: 3 mph from Northeast

Location: Bucharest / Imh

Current Time: Jul 24, 2016 at 11:23:58 PM

Latest Report: Jul 24, 2016 at 11:00 PM


Visibility: 10 mi

Pressure: 30.01 "Hg

Humidity: 51%

Dew Point: 57 °F

Location of BucharestLocation

Past Weather in Bucharest — Graph

°F

Bucharest Temperature Yesterday

Maximum temperature yesterday: 91 °F (at 4:00 PM)
Minimum temperature yesterday: 66 °F (at 3:30 AM)
Average temperature yesterday: 80 °F

High & Low Weather Summary for the Past Weeks

 TemperatureHumidityPressure
High93 °F (Jul 14, 5:30 PM)94% (Jul 13, 5:30 AM)30.09 "Hg (Jul 13, 5:30 AM)
Low61 °F (Jul 11, 5:00 AM)27% (Jul 12, 5:30 PM)29.71 "Hg (Jul 14, 8:30 PM)
Average76 °F56%29.93 "Hg
* Reported Jul 9 10:00 PM — Jul 24 10:00 PM, Bucharest, Weather by CustomWeather, © 2016

Note: Actual official high and low records may vary slightly from our data, if they occured in-between our weather recording intervals... More about our weather records

Advertising

Bucharest Weather History for the Previous 24 Hours

Scroll right to see more
 ConditionsComfort  
Time TempWeatherWind HumidityBarometerVisibility
10:00 PM
Sun, Jul 24
79 °FClear.5 mph51%30.01 "Hg10 mi
9:30 PM79 °FSunny.3 mph54%29.98 "Hg10 mi
9:00 PM79 °FSunny.5 mph54%29.98 "Hg10 mi
8:30 PM81 °FSunny.6 mph51%29.98 "Hg10 mi
8:00 PM84 °FSunny.5 mph45%29.98 "Hg10 mi
7:30 PM86 °FPassing clouds.7 mph40%29.98 "HgN/A
7:00 PM88 °FPassing clouds.7 mph38%29.98 "HgN/A
6:30 PM88 °FPassing clouds.3 mph38%29.98 "HgN/A
6:00 PM88 °FPassing clouds.5 mph38%29.98 "HgN/A
5:30 PM90 °FSunny.3 mph36%29.98 "Hg10 mi
5:00 PM90 °FPassing clouds.6 mph33%29.98 "HgN/A
4:30 PM90 °FPassing clouds.5 mph36%29.98 "HgN/A
4:00 PM88 °FSunny.3 mph38%29.98 "Hg10 mi
3:30 PM88 °FSunny.5 mph38%29.98 "Hg10 mi
3:00 PM88 °FPassing clouds.3 mph38%30.01 "HgN/A
2:30 PM88 °FSunny.6 mph35%30.01 "Hg10 mi
2:00 PM86 °FPassing clouds.6 mph38%30.01 "HgN/A
1:30 PM86 °FPassing clouds.10 mph40%30.01 "HgN/A
1:00 PM86 °FPassing clouds.12 mph40%30.01 "HgN/A
12:30 PM84 °FPassing clouds.10 mph40%30.01 "HgN/A
12:00 PM84 °FPassing clouds.13 mph43%30.01 "HgN/A
11:30 AM82 °FPassing clouds.12 mph45%30.01 "HgN/A
11:00 AM82 °FPassing clouds.14 mph45%30.01 "HgN/A
10:30 AM79 °FPassing clouds.13 mph48%30.01 "HgN/A
10:00 AM81 °FPassing clouds.15 mph48%30.01 "HgN/A
9:30 AM79 °FPassing clouds.13 mph48%30.01 "HgN/A
9:00 AM77 °FPassing clouds.15 mph51%30.01 "HgN/A
8:30 AM75 °FSunny.10 mph54%30.01 "Hg10 mi
8:00 AM73 °FPassing clouds.9 mph57%30.01 "HgN/A
7:30 AM75 °FSunny.9 mph54%29.98 "Hg10 mi
7:00 AM73 °FPassing clouds.10 mph53%29.98 "HgN/A
6:30 AM72 °FClear.7 mph57%29.98 "Hg10 mi
6:00 AM72 °FPassing clouds.7 mph57%29.98 "HgN/A
5:30 AM72 °FPassing clouds.10 mph57%29.98 "HgN/A
5:00 AM73 °FPassing clouds.9 mph53%29.98 "HgN/A
4:30 AM72 °FPassing clouds.8 mph57%29.98 "HgN/A
4:00 AM72 °FPassing clouds.8 mph61%29.98 "HgN/A
3:30 AM72 °FPassing clouds.8 mph65%29.98 "HgN/A
3:00 AM73 °FPassing clouds.7 mph61%29.98 "HgN/A
2:30 AM73 °FPassing clouds.6 mph65%29.98 "HgN/A
2:00 AM75 °FPassing clouds.6 mph65%29.98 "HgN/A
1:30 AM75 °FPassing clouds.3 mph61%29.98 "HgN/A
1:00 AM75 °FMild.1 mph61%29.98 "HgN/A
12:30 AM77 °FClear.3 mph57%29.98 "Hg10 mi
12:00 AM77 °FClear.3 mph57%29.98 "Hg10 mi
11:30 PM
Sat, Jul 23
75 °FPassing clouds.No wind61%29.95 "HgN/A
11:00 PM75 °FClear.No wind61%29.95 "Hg10 mi
Weather by CustomWeather, © 2016

See weather overviewHow to use our weather pages